This is the latest recevied weather packets stored in our database for station/object E20ZNR-1. If no packets are shown the sender has not sent any weather packets the latest 10 day(s).
| Time | Temp. | Humidity | Pressure | Rain* | Wind** | Luminosity | Snow |
|---|---|---|---|---|---|---|---|
| 1777546907 | 31.11° C | 71% | 1005 hPa | - | - | 0 W/m² | - |
| 1777545981 | 32.22° C | 77% | 1004 hPa | - | - | 0 W/m² | - |
| 1777545056 | 32.22° C | 73% | 1003 hPa | - | - | 0 W/m² | - |
| 1777544131 | 33.33° C | 73% | 1003 hPa | - | - | 0 W/m² | - |
| 1777543205 | 33.89° C | 71% | 1003 hPa | - | - | 0 W/m² | - |
| 1777542281 | 34.44° C | 72% | 1003 hPa | - | - | 0 W/m² | - |
| 1777541356 | 33.89° C | 77% | 1003 hPa | - | - | 0 W/m² | - |
| 1777540431 | 33.33° C | 75% | 1003 hPa | - | - | 0 W/m² | - |
| 1777539508 | 32.78° C | 73% | 1003 hPa | - | - | 0 W/m² | - |
| 1777538581 | 32.22° C | 78% | 1003 hPa | - | - | 0 W/m² | - |
| 1777537656 | 32.22° C | 79% | 1003 hPa | - | - | 0 W/m² | - |
| 1777536730 | 32.78° C | 73% | 1003 hPa | - | - | 0 W/m² | - |
| 1777535805 | 31.11° C | 77% | 1004 hPa | - | - | 0 W/m² | - |
| 1777534879 | 32.78° C | 68% | 1004 hPa | - | - | 0 W/m² | - |
| 1777533953 | 32.22° C | 54% | 1004 hPa | - | - | 0 W/m² | - |
| 1777533027 | 36.11° C | 61% | 1004 hPa | - | - | 0 W/m² | - |
| 1777532101 | 37.22° C | 54% | 1004 hPa | - | - | 0 W/m² | - |
| 1777531175 | 37.22° C | 52% | 1004 hPa | - | - | 0 W/m² | - |
| 1777530250 | 36.67° C | 51% | 1005 hPa | - | - | 0 W/m² | - |
| 1777529324 | 39.44° C | 47% | 1005 hPa | - | - | 0 W/m² | - |
| 1777528399 | 38.33° C | 45% | 1005 hPa | - | - | 0 W/m² | - |
| 1777527473 | 39.44° C | 45% | 1006 hPa | - | - | 0 W/m² | - |
| 1777526547 | 40° C | 47% | 1006 hPa | - | - | 0 W/m² | - |
| 1777525622 | 38.33° C | 46% | 1006 hPa | - | - | 0 W/m² | - |
| 1777524697 | 38.89° C | 48% | 1007 hPa | - | - | 0 W/m² | - |
* Rain since midnight (hover to see other rain measurements)
** Current wind speed in m/s (hover to see current wind gust speed)